Location: Hamburg
(53.5511°N, 9.9937°E)
Time: 16:41:27
(UTC+02:00)

ISS - Pass Details

Date: 20 March 2026
Orbit: 416 x 425 km, 51.6° (Epoch: 19 April)

Event Time Altitude Azimuth Distance (km) Brightness Sun altitude
Rises 19:02:32 0° 258° (WSW) 2,387 1.7 -5.2°
Reaches altitude 10° 19:04:39 10° 254° (WSW) 1,521 0.4 -5.5°
Maximum altitude 19:08:02 61° 174° (S) 488 -3.5 -6.0°
Drops below altitude 10° 19:11:24 10° 94° (E) 1,517 -1.6 -6.5°
Enters shadow 19:11:41 - 93° (E) 1,632 -1.5 -6.5°
